Showing default

ALMUNTHER, 63240

Orbit data source: Space-Track

ALMUNTHER, 63240 is a Bahraini payload satellite in SSO that was launched on Sat, 15 Mar 2025 UTC via an FALCON 9 launch vehicle from the Air Force Western Test Range (AFWTR). Payload-class satellites include a variety of spacecraft equipped with specific instruments for various scientific and technological missions. These include communications satellites like Starlink; space stations such as the ISS; scientific satellites like the Hubble; Earth observation satellites from companies like Planet Labs, Umbra, and HawkEye 360; GPS; miniature CubeSats for education and research; and military/defense satellites.

Loading next visibility...
Identifier
63240, 2025-052AG
Orbit
SSO
Country
Flag of BHBH / BHR
Related business
Manufacturer
AMAN/BNSSA
Mission
Operational Civil Technology
Bus & Motor
CUBESAT 3U?, Unknown motor
Mass
3 kg wet, 3 kg dry
Launch date (UTC)
2025-03-15 (6 months ago)
Launch vehicle
FALCON 9
Launch site
Air Force Western Test Range (AFWTR)
Object type
Payload
Rocket body
Debris
Shape & HBR
Box, 0.1 m
Radar Cross Section
0.035 m², Small (<0.1 m²)

Expand to show TLE details & history
Last TLE update: 16 hours ago

TLE from 16 hours ago
0 ALMUNTHER
1 63240U 25052AG  25257.94769018  .00009818  00000-0  44755-3 0  9998
2 63240  97.4157 150.1362 0009810  53.5844 306.6295 15.20811560 28027
Epoch: 2025-09-14T22:44Z
TLE epoch observation values (Epoch: 2025-09-14T22:44:40.431Z)
Latitude
-0°
Longitude
174.80835°
Altitude
502.458 km
Speed
7.615 km/s
True Right ascension
10h 00m 32s
True Declination
0° 00' 00"
Sunlit
Object was in daylight at epoch
Visualization orbit readout
Latitude
Unknown
Longitude
Unknown
Altitude
Unknown
Speed
Unknown
Apparent Right ascension
Unknown
Apparent Declination
Unknown
Sunlit
N/A
Visualization observer readout
Local Sidereal Time
07:25:15
Azimuth
Unknown
Elevation
Unknown
Doppler factor
Unknown
Orbital elements
Apogee altitude
507.104 km
Perigee altitude
493.609 km
Semi-major axis
6,878.494 km
Eccentricity
0.00098
Inclination
97.4157°
RAAN
150.1362°
Arg. of periapsis
53.5844°
True anomaly
306.53922°
Mean anomaly
306.6295°
Eccentric anomaly
306.58437°
Mean motion
3.80455 °/min
Orbital period
94.62 mins
BSTAR
0.00044755
Loading maneuver chart data...
Computing Atmospheric mass density...
Loading historical data...
Loading historical data...
Loading historical data...
Loading historical data...
Loading historical data...
Loading historical data...
Loading historical data...

Documentation

Showing up to 5 results
|